ATLAS 5 CENTAUR DEB, 43960

Orbit data source: Space-Track

ATLAS 5 CENTAUR DEB, 43960 is space debris in HEO originally from a launch on Wed, 17 Sep 2014 UTC launched from the Air Force Eastern Test Range (AFETR). Debris objects in space refer to the collection of defunct objects orbiting the Earth. Examples of debris include non-operational satellites, rocket bodies, and fragments generated from explosions, collisions, or faulty payload assembly.

Loading next visibility...
Identifier
43960, 2014-055P
Orbit
HEO
Country
Flag of USUS
Related business
Flag of USUnited Launch Alliance/Lockheed Martin (US)
Manufacturer
Unknown
Mission
Spacecraft
Bus & Motor
Unknown
Mass
Unknown
Launch date (UTC)
2014-09-17 (11 years ago)
Launch vehicle
Unknown
Launch site
Air Force Eastern Test Range (AFETR)
Object type
Payload
Rocket body
Debris
Shape & HBR
Unknown shape, 1.1 m
Radar Cross Section
Small (<0.1 m²)

Expand to show TLE details & history
Last TLE update: 5 days ago

TLE from 5 days ago
0 ATLAS 5 CENTAUR DEB
1 43960U 14055P   25298.21389250 -.00000005  00000-0  00000-0 0  9999
2 43960  19.6323 161.0587 5114458 132.2781 284.2282  1.81475776 47373
Epoch: 2025-10-25T05:08Z
TLE epoch observation values (Epoch: 2025-10-25T05:08:00.312Z)
Latitude
-0.00002°
Longitude
50.29786°
Altitude
25,556.264 km
Speed
3.305 km/s
True Right ascension
10h 44m 35s
True Declination
0° 00' 00"
Sunlit
Object was in daylight at epoch
Visualization orbit readout
Latitude
Unknown
Longitude
Unknown
Altitude
Unknown
Speed
Unknown
Apparent Right ascension
Unknown
Apparent Declination
Unknown
Sunlit
N/A
Visualization observer readout
Local Sidereal Time
14:19:43
Azimuth
Unknown
Elevation
Unknown
Doppler factor
Unknown
Orbital elements
Apogee altitude
36,537.277 km
Perigee altitude
7,493.684 km
Semi-major axis
28,393.618 km
Eccentricity
0.51145
Inclination
19.6323°
RAAN
161.0587°
Arg. of periapsis
132.2781°
True anomaly
227.76141°
Mean anomaly
284.2282°
Eccentric anomaly
255.81766°
Mean motion
0.45364 °/min
Orbital period
793.58 mins
BSTAR
0
Loading maneuver chart data...
Computing Atmospheric mass density...

Documentation

Showing up to 5 results
|